Location: Navalespino
(40.5894°N, 4.2660°W)
Time: 05:53:09
(UTC+00:00)

Okean 1 Rocket - Pass Details

Date: 18 April 2024
Orbit: 603 x 631 km, 82.5° (Epoch: 22 May)

Event Time Altitude Azimuth Distance (km) Brightness Sun altitude
Exits shadow 20:44:04 36° 156° (SSE) 997 3.7 -18.7°
Maximum altitude 20:45:39 58° 94° (E) 733 3.1 -19.0°
Drops below altitude 10° 20:50:03 10° 16° (NNE) 2,020 5.9 -19.7°
Sets 20:52:19 0° 12° (NNE) 2,934 6.8 -20.0°
